Regional Weather Roundup
Issued by NWS Midland/Odessa, TX

Skip options and go directly to product.
Home | Oldest Version | Next Version | Current Version | All | Text Only | Save Text | Print | Product List | Glossary On

Skip product version selection by date and time.   
090
ASUS44 KMAF 230202
RWRMAF
MIDLAND AREA WEATHER ROUNDUP
NATIONAL WEATHER SERVICE MIDLAND TX
800 PM CST SAT NOV 22 2014

...IN SOUTHWEST TEXAS AND SOUTHEAST NEW MEXICO...

CITY           SKY/WX    TMP DP  RH WIND       PRES   REMARKS
ALPINE         CLEAR     54  35  48 W8        29.99R
ANDREWS        FAIR      58  34  39 W3        29.80S
ARTESIA        NOT AVBL
BIG SPRING     CLEAR     59  56  91 SE9       29.81S
CARLSBAD       CLEAR     59  27  29 W13       29.80S
DRYDEN           N/A     60  40  47 W7        29.81R
FORT STOCKTON  CLEAR     58  37  45 SW12      29.85R
GUAD PASS      NOT AVBL
HOBBS          CLEAR     54  30  40 SW10      29.81F
MARFA          CLEAR     52  34  50 W12       29.97R
MIDLAND AIRPK  PTCLDY    60  56  87 CALM      29.80S FOG
MIDLAND INTL   CLEAR     57  53  86 CALM      29.79S
ODESSA         CLEAR     58  36  43 W5        29.80S
PECOS          CLEAR     60  36  40 SW10      29.83S
PRESIDIO       FAIR      63  38  39 W7        29.91R
SEMINOLE       CLEAR     54  33  44 W6        29.80F
SNYDER         MOCLDY    51  50  96 SE5       29.80F
WINK           CLEAR     60  34  37 W12       29.79F
$$
...OTHER STATIONS IN TEXAS...

CITY           SKY/WX    TMP DP  RH WIND       PRES   REMARKS
ABILENE        CLOUDY    55  54  96 S7        29.79S
AMARILLO       CLEAR     49  40  71 SE14      29.69F
AUSTIN         TSTM      66  66 100 W10G20    29.76R
BROWNSVILLE    CLOUDY    75  71  87 S15       29.73S
CORPUS CHRISTI TSTM      67  62  84 NW25G39   29.84R
DALLAS FTW     LGT RAIN  56  56 100 E3        29.81F
DEL RIO        PTCLDY    59  53  80 CALM      29.78R
EL PASO        PTCLDY    61  19  19 W9        29.91R
HOUSTON INT    CLOUDY    67  65  93 SE15      29.82R FOG
LUBBOCK        PTCLDY    54  51  90 S10       29.75F FOG
SAN ANGELO     MOCLDY    58  55  90 CALM      29.82R
SAN ANTONIO    TSTM      63  52  67 NW38G63   29.73F
WACO           CLOUDY    60  59  96 NE7       29.80F
WICHITA FALLS  NOT AVBL
$$
...OTHER LOCATIONS IN NEW MEXICO...

CITY           SKY/WX    TMP DP  RH WIND       PRES   REMARKS
ALAMAGORDO     PTCLDY    50  19  29 MISG      29.90R
ALBUQUERQUE    MOCLDY    51  15  23 NW6       29.91S
CANNON AFB     CLEAR     64  18  16 W23G31    29.77R
CLOVIS         CLEAR     43  16  33 SW9       29.75R WCI  37
HOLLOMAN AFB   PTCLDY    50  20  30 SE3       29.89R
ROSWELL        CLEAR     46  24  42 S5        29.80R
RUIDOSO        PTCLDY    48  14  25 W21G32    29.90F
SANTA FE       CLEAR     40  11  30 N6        29.89F WCI  36
TRUTH OR CONSE CLEAR     51  19  28 W5        29.90S
TUCUMCARI        N/A     56  17  21 W17       29.64F
$$

USA.gov is the U.S. government's official web portal to all federal, state and local government web resources and services.